User: anonymous   Login
Location: Blanot
(47.1713°N, 4.2340°E)
Time: 09:03:38
(UTC+00:00)
Language:

Meteor 1-11 Rocket - Orbit

View from above orbital plane
View from above orbital plane
View from above satellite
View from above satellite

Ground track
Ground track

The orbit data is extracted from the following two-line orbital elements,

1  5918U 72022B   20270.09614979 -.00000016  00000-0 -16925-4 0  9998
2  5918  81.2356 247.9921 0057701 202.7494 157.1117 14.05872018486166
Epoch (UTC): 26 September 2020 02:18:27
Eccentricity: 0.0057701
inclination: 81.2356°
perigee height: 831 km
apogee height: 915 km
right ascension of ascending node: 247.9921°
argument of perigee: 202.7494°
revolutions per day: 14.05872018
mean anomaly at epoch: 157.1117°
orbit number at epoch: 48616

The dashed part of the orbit path shows where the satellite is in the earth's shadow,  

DLR